Sandspit, British Columbia

12:50 AM PDT on June 24, 2017 (GMT -0700)
Sandspit

Weather History for CYZP - January, 2013

Change the Weather History Date:

Thursday, January 24, 2013

  Actual Average Record
Temperature  
Mean Temperature 41 °F -  
Max Temperature 44 °F 43 °F 55 °F (2015)
Min Temperature 38 °F 34 °F 26 °F (1997)
Degree Days  
Heating Degree Days 24    
Moisture  
Dew Point 39 °F    
Average Humidity 89    
Maximum Humidity 100    
Minimum Humidity 81    
Precipitation  
Precipitation 0.31 in 0.17 in - ()
Sea Level Pressure  
Sea Level Pressure 29.51 in    
Wind  
Wind Speed 21 mph ()    
Max Wind Speed 62 mph    
Max Gust Speed 75 mph    
Visibility 6.5 miles    
Events Rain    
Averages and records for this station are not official NWS values.
T = Trace of Precipitation, MM = Missing Value Source: Averaged Metar Reports

Daily Weather History Graph

Daily Weather History Graph

Search for Another Location

Airport or City:

Trip Planner

Search our weather history database for the weather conditions in past years. The results will help you decide how hot, cold, wet, or windy it might be!

Date:

Astronomy

Jan. 24, 2013 Rise Set
Actual Time 8:43 AM PST 5:16 PM PST
Civil Twilight 8:03 AM PST 5:55 PM PST
Nautical Twilight 7:21 AM PST 6:38 PM PST
Astronomical Twilight 6:40 AM PST 7:19 PM PST
Moon 3:20 PM PST 6:51 AM PST
Length of Visible Light 9h 51m
Length of Day
8h 33m
Waxing Gibbous, 95% of the Moon is Illuminated
Jan 24
Waxing Gibbous
Jan 26
Full
Feb 3
Last Quarter
Feb 9
New
Feb 17
First Quarter

Hourly Weather History & Observations

Time (PST) Temp. Windchill Dew Point Humidity Pressure Visibility Wind Dir Wind Speed Gust Speed Precip Events Conditions
12:00 AM 39.2 °F 37.0 °F 35.6 °F 87% 29.83 in 9.0 mi SSE 3.5 mph - N/A   Overcast
1:00 AM 39.2 °F - 35.6 °F 87% 29.83 in 9.0 mi South 2.3 mph - N/A   Overcast
2:00 AM 37.4 °F 31.4 °F 35.6 °F 93% 29.82 in 9.0 mi SSE 8.1 mph - N/A   Overcast
3:00 AM 39.2 °F 34.2 °F 35.6 °F 87% 29.81 in 9.0 mi SSE 6.9 mph - N/A   Overcast
4:00 AM 41 °F - - % 29.80 in - South 3.5 mph - -  
4:00 AM 41.0 °F 38.0 °F 37.4 °F 87% 29.80 in 9.0 mi South 4.6 mph - N/A   Overcast
5:00 AM 41.0 °F 34.7 °F 37.4 °F 87% 29.78 in 9.0 mi SSE 10.4 mph - N/A   Overcast
6:00 AM 39.2 °F 37.0 °F 37.4 °F 93% 29.75 in 9.0 mi South 3.5 mph - N/A   Overcast
6:33 AM 41.0 °F 32.8 °F 37.4 °F 87% 29.73 in 9.0 mi SE 16.1 mph - N/A   Overcast
7:00 AM 42.8 °F 34.8 °F 37.4 °F 81% 29.71 in 9.0 mi SE 17.3 mph - N/A   Overcast
7:53 AM 42.8 °F 33.8 °F 39.2 °F 87% 29.68 in 9.0 mi SE 21.9 mph 27.6 mph N/A Rain Light Rain
8:00 AM 42.8 °F 33.8 °F 39.2 °F 87% 29.68 in 9.0 mi SSE 21.9 mph 28.8 mph N/A Rain Light Rain
8:06 AM 42.8 °F 34.0 °F 39.2 °F 87% 29.67 in 9.0 mi SSE 20.7 mph 28.8 mph N/A   Overcast
8:12 AM 42.8 °F 34.0 °F 39.2 °F 87% 29.67 in 9.0 mi SE 20.7 mph - N/A Rain Light Rain
8:22 AM 42.8 °F 33.8 °F 39.2 °F 87% 29.66 in 9.0 mi SE 21.9 mph - N/A   Overcast
8:45 AM 42.8 °F 31.4 °F 37.4 °F 81% 29.64 in 9.0 mi SSE 35.7 mph 47.2 mph N/A   Overcast
9:00 AM 42.8 °F 31.9 °F 37.4 °F 81% 29.63 in 9.0 mi SSE 32.2 mph 39.1 mph N/A   Overcast
9:05 AM 42.8 °F 32.7 °F 37.4 °F 81% 29.63 in 9.0 mi SSE 27.6 mph 38.0 mph N/A Rain Light Rain
9:48 AM 42.8 °F 31.6 °F 39.2 °F 87% 29.61 in 9.0 mi SE 34.5 mph 41.4 mph N/A   Overcast
9:58 AM 42.8 °F 31.4 °F 39.2 °F 87% 29.61 in 9.0 mi SE 35.7 mph 42.6 mph N/A Rain Light Rain
10:00 AM 43 °F - - % 29.60 in - SSE 33.4 mph - -  
10:00 AM 42.8 °F 31.4 °F 39.2 °F 87% 29.61 in 9.0 mi SSE 35.7 mph 44.9 mph N/A Rain Light Rain
10:18 AM 42.8 °F 31.3 °F 39.2 °F 87% 29.60 in 8.0 mi SE 36.8 mph 47.2 mph N/A Rain Light Rain
10:21 AM 42.8 °F 30.7 °F 39.2 °F 87% 29.59 in 5.0 mi SE 41.4 mph 48.3 mph N/A Rain Light Rain
10:58 AM 42.8 °F 30.7 °F 39.2 °F 87% 29.57 in 4.0 mi SE 41.4 mph 54.1 mph N/A Rain Light Rain
11:00 AM 42.8 °F 30.4 °F 39.2 °F 87% 29.58 in 4.0 mi SE 43.7 mph 54.1 mph N/A Rain Light Rain
11:16 AM 42.8 °F 30.5 °F 39.2 °F 87% 29.56 in 2.2 mi SE 42.6 mph 52.9 mph N/A Rain Light Rain
11:17 AM 42.8 °F 30.8 °F 39.2 °F 87% 29.56 in 2.2 mi SE 40.3 mph 52.9 mph N/A Rain Light Rain
11:19 AM 42.8 °F 30.7 °F 39.2 °F 87% 29.56 in 2.2 mi SE 41.4 mph 52.9 mph N/A Rain Light Rain
11:25 AM 42.8 °F 30.7 °F 39.2 °F 87% 29.56 in 2.5 mi SE 41.4 mph 51.8 mph N/A Rain Light Rain
11:26 AM 42.8 °F 31.0 °F 39.2 °F 87% 29.56 in 3.0 mi SE 39.1 mph 51.8 mph N/A Rain Light Rain
11:49 AM 42.8 °F 29.9 °F 39.2 °F 87% 29.53 in 2.2 mi SE 48.3 mph 58.7 mph N/A Rain Light Rain
12:00 PM 42.8 °F 30.3 °F 39.2 °F 87% 29.53 in 2.5 mi SE 44.9 mph 56.4 mph N/A Rain Light Rain
12:14 PM 42.8 °F 29.8 °F 39.2 °F 87% 29.51 in 2.5 mi SE 49.5 mph 58.7 mph N/A Rain Light Rain
12:18 PM 42.8 °F 31.0 °F 39.2 °F 87% 29.51 in 2.5 mi SE 39.1 mph 58.7 mph N/A Rain Light Rain
12:42 PM 42.8 °F 29.8 °F 39.2 °F 87% 29.48 in 1.8 mi SE 49.5 mph 58.7 mph N/A Rain Rain
12:57 PM 41.0 °F 27.6 °F 39.2 °F 93% 29.47 in 1.5 mi SE 46.0 mph 61.0 mph N/A Rain Rain
1:00 PM 41.0 °F 27.5 °F 39.2 °F 93% 29.46 in 1.2 mi SE 47.2 mph 62.1 mph N/A Rain Rain
1:19 PM 42.8 °F 28.9 °F 39.2 °F 87% 29.44 in 1.2 mi SE 58.7 mph 70.2 mph N/A Rain Light Rain
1:49 PM 41.0 °F 26.9 °F 39.2 °F 93% 29.41 in 1.0 mi SE 52.9 mph 70.2 mph N/A Rain Rain
2:00 PM 41.0 °F 26.7 °F 39.2 °F 93% 29.39 in 1.0 mi SE 54.1 mph 73.6 mph N/A Rain Light Rain
3:00 PM 41.0 °F 26.0 °F 39.2 °F 93% 29.34 in 0.8 mi SE 62.1 mph 74.8 mph N/A Rain Rain
4:00 PM 41 °F - - % 29.29 in - SE 54.1 mph - -  
4:00 PM 39.2 °F 24.4 °F 39.2 °F 100% 29.29 in 0.8 mi SE 51.8 mph 67.9 mph N/A Rain Rain
5:00 PM 42.8 °F 30.4 °F 41.0 °F 93% 29.26 in 1.8 mi SE 43.7 mph 63.3 mph N/A Rain Light Rain
5:03 PM 42.8 °F 30.3 °F 41.0 °F 93% 29.26 in 2.0 mi SE 44.9 mph 63.3 mph N/A Rain Light Rain
5:18 PM 44.6 °F 33.1 °F 42.8 °F 93% 29.25 in 3.0 mi SE 42.6 mph 54.1 mph N/A Rain Light Rain
5:35 PM 44.6 °F 34.7 °F 41.0 °F 87% 29.26 in 6.0 mi SSE 29.9 mph 42.6 mph N/A Rain Light Rain
5:41 PM 42.8 °F 33.8 °F 41.0 °F 93% 29.27 in 8.0 mi SSE 21.9 mph 38.0 mph N/A   Overcast
5:45 PM 42.8 °F 34.3 °F 41.0 °F 93% 29.27 in 9.0 mi SSE 19.6 mph 31.1 mph N/A   Mostly Cloudy
5:50 PM 42.8 °F 34.8 °F 41.0 °F 93% 29.27 in 9.0 mi SSE 17.3 mph 25.3 mph N/A Rain Light Rain
6:00 PM 42.8 °F 34.5 °F 39.2 °F 87% 29.27 in 9.0 mi SSE 18.4 mph - N/A Rain Light Rain
6:05 PM 42.8 °F 34.5 °F 39.2 °F 87% 29.27 in 9.0 mi SSE 18.4 mph - N/A   Mostly Cloudy
6:18 PM 42.8 °F 35.8 °F 39.2 °F 87% 29.29 in 9.0 mi South 13.8 mph 21.9 mph N/A Rain Light Rain
7:00 PM 42.8 °F 36.6 °F 39.2 °F 87% 29.30 in 9.0 mi South 11.5 mph 17.3 mph N/A Rain Light Rain
8:00 PM 41.0 °F 34.3 °F 39.2 °F 93% 29.35 in 9.0 mi South 11.5 mph 18.4 mph N/A Rain Rain
9:00 PM 41.0 °F 32.8 °F 39.2 °F 93% 29.38 in 9.0 mi SSE 16.1 mph - N/A Rain Light Rain
9:17 PM 41.0 °F - 39.2 °F 93% 29.39 in 9.0 mi North - - N/A   Mostly Cloudy
9:25 PM 42.8 °F 36.6 °F 39.2 °F 87% 29.39 in 9.0 mi South 11.5 mph 18.4 mph N/A Rain Light Rain
9:57 PM 42.8 °F 36.2 °F 39.2 °F 87% 29.40 in 9.0 mi SSE 12.7 mph 20.7 mph N/A   Overcast
10:00 PM 42 °F - - % 29.42 in - SSE 10.4 mph - -  
10:00 PM 42.8 °F 36.6 °F 39.2 °F 87% 29.42 in 9.0 mi SSE 11.5 mph 20.7 mph N/A   Overcast
10:02 PM 42.8 °F 35.8 °F 39.2 °F 87% 29.42 in 9.0 mi SSE 13.8 mph - N/A Rain Light Rain
10:37 PM 41.0 °F 34.7 °F 39.2 °F 93% 29.44 in 9.0 mi South 10.4 mph 20.7 mph N/A   Overcast
10:38 PM 41.0 °F 35.8 °F 39.2 °F 93% 29.45 in 9.0 mi South 8.1 mph 20.7 mph N/A   Overcast
10:41 PM 41.0 °F 35.8 °F 39.2 °F 93% 29.45 in 9.0 mi SSE 8.1 mph 20.7 mph N/A Rain Light Rain
10:46 PM 41.0 °F 33.5 °F 39.2 °F 93% 29.44 in 9.0 mi SSE 13.8 mph - N/A Rain Light Rain
11:00 PM 41.0 °F 34.3 °F 37.4 °F 87% 29.45 in 9.0 mi SSE 11.5 mph 18.4 mph N/A Rain Light Rain
11:36 PM 39.2 °F 31.6 °F 37.4 °F 93% 29.47 in 9.0 mi SSE 12.7 mph - N/A   Scattered Clouds
11:47 PM 41.0 °F 33.9 °F 37.4 °F 87% 29.48 in 9.0 mi South 12.7 mph - N/A Rain Light Rain
11:59 PM 41.0 °F 34.3 °F 37.4 °F 87% 29.49 in 5.0 mi South 11.5 mph 18.4 mph N/A Rain Rain